• In Austria
  • List of Countries
  • For 7 days
  • Water Temperature
  • Satellite Maps
  • Weather Map
  • News
  • Weather Widgets
  • user-avatar
    Login

    Hourly Weather Koziatyn

    Today, 18 July, Wednesday

    Time Temperature Precipitation Wind Pressure Humidity
    00:00 +19°C° 0 mm 1 mps 733 mmHg 94%
    01:00 +18°C° 0 mm 1 mps 732 mmHg 94%
    02:00 +18°C° 0 mm 1 mps 732 mmHg 96%
    03:00 +18°C° 0.1 mm 2 mps 732 mmHg 96%
    04:00 +18°C° 0.1 mm 2 mps 732 mmHg 96%
    05:00 +18°C° 0.1 mm 2 mps 732 mmHg 96%
    06:00 +19°C° 0.1 mm 2 mps 732 mmHg 94%
    07:00 +19°C° 0.1 mm 2 mps 732 mmHg 92%
    08:00 +21°C° 0 mm 1 mps 732 mmHg 89%
    09:00 +22°C° 0.3 mm 1 mps 732 mmHg 85%
    10:00 +24°C° 0.3 mm 1 mps 732 mmHg 81%
    11:00 +25°C° 0.3 mm 1 mps 732 mmHg 77%
    12:00 +25°C° 0.6 mm 2 mps 732 mmHg 76%
    13:00 +26°C° 0.6 mm 2 mps 732 mmHg 75%
    14:00 +26°C° 0 mm 2 mps 733 mmHg 71%
    15:00 +26°C° 0.3 mm 2 mps 733 mmHg 72%
    16:00 +26°C° 0.3 mm 2 mps 733 mmHg 73%
    17:00 +26°C° 0.3 mm 2 mps 733 mmHg 74%
    18:00 +25°C° 0.3 mm 2 mps 733 mmHg 79%
    19:00 +24°C° 0.3 mm 2 mps 733 mmHg 83%
    20:00 +23°C° 0.3 mm 2 mps 733 mmHg 88%
    21:00 +23°C° 0.4 mm 2 mps 733 mmHg 90%
    22:00 +21°C° 0.4 mm 2 mps 733 mmHg 92%
    23:00 +20°C° 0.4 mm 2 mps 733 mmHg 94%

    Tomorrow, 19 July, Thursday

    Time Temperature Precipitation Wind Pressure Humidity
    00:00 +20°C° 0.3 mm 2 mps 733 mmHg 95%
    01:00 +20°C° 0.3 mm 2 mps 734 mmHg 96%
    02:00 +19°C° 0.3 mm 2 mps 734 mmHg 96%
    03:00 +19°C° 0 mm 2 mps 734 mmHg 97%
    04:00 +19°C° 0 mm 2 mps 734 mmHg 97%
    05:00 +19°C° 0 mm 2 mps 734 mmHg 98%
    06:00 +20°C° 0 mm 2 mps 734 mmHg 96%
    07:00 +21°C° 0 mm 3 mps 735 mmHg 93%
    08:00 +22°C° 0 mm 3 mps 735 mmHg 91%
    09:00 +23°C° 0.7 mm 4 mps 735 mmHg 87%
    10:00 +25°C° 0.7 mm 4 mps 735 mmHg 83%
    11:00 +26°C° 0.7 mm 4 mps 735 mmHg 79%
    12:00 +26°C° 0.6 mm 4 mps 735 mmHg 76%
    13:00 +27°C° 0.6 mm 5 mps 735 mmHg 72%
    14:00 +28°C° 0.6 mm 5 mps 735 mmHg 68%
    15:00 +28°C° 0.2 mm 5 mps 735 mmHg 68%
    16:00 +27°C° 0.2 mm 5 mps 735 mmHg 69%
    17:00 +27°C° 0.2 mm 5 mps 735 mmHg 69%
    18:00 +26°C° 0.1 mm 5 mps 735 mmHg 74%
    19:00 +23°C° 0.1 mm 4 mps 735 mmHg 78%
    20:00 +22°C° 0.1 mm 4 mps 735 mmHg 83%
    21:00 +21°C° 0 mm 4 mps 736 mmHg 86%
    22:00 +20°C° 0 mm 3 mps 736 mmHg 89%
    23:00 +19°C° 0 mm 3 mps 736 mmHg 91%

    Day after tomorrow, 20 July, Friday

    Time Temperature Precipitation Wind Pressure Humidity
    00:00 +19°C° 0 mm 3 mps 736 mmHg 92%
    01:00 +18°C° 0 mm 3 mps 736 mmHg 94%
    02:00 +18°C° 0 mm 3 mps 736 mmHg 95%
    03:00 +18°C° 0 mm 3 mps 736 mmHg 95%
    04:00 +17°C° 0 mm 3 mps 736 mmHg 95%
    05:00 +17°C° 0 mm 3 mps 736 mmHg 96%
    06:00 +18°C° 0 mm 4 mps 736 mmHg 91%
    07:00 +20°C° 0 mm 4 mps 737 mmHg 87%
    08:00 +21°C° 0 mm 5 mps 737 mmHg 83%
    09:00 +22°C° 0.1 mm 5 mps 737 mmHg 81%
    10:00 +22°C° 0.1 mm 5 mps 737 mmHg 79%
    11:00 +23°C° 0.1 mm 5 mps 737 mmHg 77%
    12:00 +25°C° 0.5 mm 5 mps 737 mmHg 76%
    13:00 +25°C° 0.5 mm 5 mps 737 mmHg 74%
    14:00 +26°C° 0.5 mm 6 mps 736 mmHg 72%
    15:00 +26°C° 0.8 mm 6 mps 736 mmHg 74%
    16:00 +24°C° 0.8 mm 6 mps 736 mmHg 75%
    17:00 +24°C° 0.8 mm 6 mps 736 mmHg 77%
    18:00 +23°C° 0.2 mm 5 mps 736 mmHg 80%
    19:00 +22°C° 0.2 mm 5 mps 736 mmHg 84%
    20:00 +21°C° 0.2 mm 4 mps 737 mmHg 87%
    21:00 +21°C° 0 mm 4 mps 737 mmHg 89%
    22:00 +20°C° 0 mm 4 mps 737 mmHg 90%
    23:00 +19°C° 0 mm 4 mps 737 mmHg 92%

    21 July, Saturday

    Time Temperature Precipitation Wind Pressure Humidity
    00:00 +19°C° 0 mm 4 mps 737 mmHg 93%
    01:00 +18°C° 0 mm 4 mps 737 mmHg 94%
    02:00 +18°C° 0 mm 4 mps 737 mmHg 95%
    03:00 +18°C° 0 mm 4 mps 737 mmHg 96%
    04:00 +18°C° 0 mm 4 mps 737 mmHg 96%
    05:00 +17°C° 0 mm 4 mps 737 mmHg 97%
    06:00 +18°C° 0 mm 4 mps 738 mmHg 94%
    07:00 +19°C° 0 mm 4 mps 738 mmHg 91%
    08:00 +20°C° 0 mm 4 mps 738 mmHg 88%
    09:00 +21°C° 0.1 mm 5 mps 738 mmHg 83%
    10:00 +22°C° 0.1 mm 5 mps 738 mmHg 77%
    11:00 +25°C° 0.1 mm 5 mps 738 mmHg 72%
    12:00 +25°C° 0.2 mm 5 mps 738 mmHg 69%
    13:00 +26°C° 0.2 mm 5 mps 738 mmHg 65%
    14:00 +27°C° 0.2 mm 5 mps 738 mmHg 62%
    15:00 +27°C° 0 mm 5 mps 738 mmHg 62%
    16:00 +27°C° 0 mm 4 mps 738 mmHg 63%
    17:00 +27°C° 0 mm 4 mps 738 mmHg 63%
    18:00 +25°C° 0 mm 3 mps 738 mmHg 68%
    19:00 +24°C° 0 mm 3 mps 738 mmHg 74%
    20:00 +21°C° 0 mm 2 mps 738 mmHg 79%
    21:00 +20°C° 0 mm 2 mps 738 mmHg 79%
    22:00 +19°C° 0 mm 2 mps 738 mmHg 80%
    23:00 +18°C° 0 mm 2 mps 738 mmHg 81%

    22 July, Sunday

    Time Temperature Precipitation Wind Pressure Humidity
    00:00 +18°C° 0 mm 2 mps 738 mmHg 80%
    01:00 +17°C° 0 mm 2 mps 738 mmHg 80%
    02:00 +17°C° 0 mm 2 mps 738 mmHg 79%
    03:00 +16°C° 0 mm 2 mps 738 mmHg 80%
    04:00 +16°C° 0 mm 2 mps 738 mmHg 81%
    05:00 +15°C° 0 mm 1 mps 738 mmHg 81%
    06:00 +17°C° 0 mm 2 mps 738 mmHg 77%
    07:00 +19°C° 0 mm 2 mps 738 mmHg 74%
    08:00 +20°C° 0 mm 2 mps 738 mmHg 70%
    09:00 +23°C° 0 mm 2 mps 738 mmHg 66%
    10:00 +24°C° 0 mm 2 mps 738 mmHg 62%
    11:00 +25°C° 0 mm 3 mps 738 mmHg 58%
    12:00 +26°C° 0 mm 3 mps 738 mmHg 56%
    13:00 +26°C° 0 mm 2 mps 738 mmHg 54%
    14:00 +27°C° 0 mm 2 mps 737 mmHg 52%
    15:00 +27°C° 0 mm 2 mps 737 mmHg 54%
    16:00 +27°C° 0 mm 2 mps 737 mmHg 55%
    17:00 +27°C° 0 mm 2 mps 737 mmHg 56%
    18:00 +25°C° 0 mm 2 mps 737 mmHg 62%
    19:00 +24°C° 0 mm 1 mps 737 mmHg 68%
    20:00 +22°C° 0 mm 1 mps 737 mmHg 73%
    21:00 +21°C° 0 mm 1 mps 737 mmHg 76%
    22:00 +20°C° 0 mm 1 mps 737 mmHg 78%
    23:00 +20°C° 0 mm 1 mps 737 mmHg 80%

    23 July, Monday

    Time Temperature Precipitation Wind Pressure Humidity
    00:00 +19°C° 0 mm 1 mps 737 mmHg 83%
    01:00 +18°C° 0 mm 2 mps 737 mmHg 85%
    02:00 +17°C° 0 mm 2 mps 737 mmHg 87%
    03:00 +17°C° 0 mm 2 mps 737 mmHg 89%
    04:00 +18°C° 0 mm 1 mps 738 mmHg 90%
    05:00 +16°C° 0 mm 1 mps 738 mmHg 92%
    06:00 +18°C° 0 mm 2 mps 738 mmHg 88%
    07:00 +19°C° 0 mm 2 mps 738 mmHg 84%
    08:00 +21°C° 0 mm 2 mps 739 mmHg 80%
    09:00 +23°C° 0.1 mm 2 mps 739 mmHg 76%
    10:00 +25°C° 0.1 mm 3 mps 739 mmHg 71%
    11:00 +26°C° 0.1 mm 3 mps 739 mmHg 67%
    12:00 +26°C° 0.2 mm 3 mps 739 mmHg 66%
    13:00 +27°C° 0.2 mm 4 mps 738 mmHg 65%
    14:00 +27°C° 0.2 mm 4 mps 738 mmHg 64%
    15:00 +27°C° 0.3 mm 4 mps 738 mmHg 65%
    16:00 +26°C° 0.3 mm 4 mps 738 mmHg 67%
    17:00 +26°C° 0.3 mm 4 mps 738 mmHg 68%
    18:00 +23°C° 0.1 mm 4 mps 739 mmHg 72%
    19:00 +22°C° 0.1 mm 3 mps 739 mmHg 77%
    20:00 +21°C° 0.1 mm 2 mps 739 mmHg 81%
    21:00 +20°C° 0 mm 2 mps 739 mmHg 82%
    22:00 +19°C° 0 mm 2 mps 739 mmHg 82%
    23:00 +18°C° 0 mm 2 mps 740 mmHg 83%
    Show more